Regional Weather Roundup
Issued by NWS Little Rock, AR

Home | Current Version | Previous Version | Text Only | Print | Product List | Glossary Off
Versions: 1 2 3 4 5 6 7 8 9 10 11 12 13 14 15 16 17 18 19 20 21 22 23 24 25 26 27 28 29 30 31 32 33 34 35 36 37 38 39 40 41 42 43 44 45 46 47 48 49 50

000
ASUS44 KLZK 301805
RWRLZK

WEATHER ROUNDUP FOR ARKANSAS
NATIONAL WEATHER SERVICE LITTLE ROCK AR
100 PM CDT THU JUL 30 2015

NOTE: "FAIR" INDICATES FEW OR NO CLOUDS BELOW 12,000 FEET WITH NO
SIGNIFICANT WEATHER AND/OR OBSTRUCTIONS TO VISIBILITY.

ARZ001-003-010-029-301900-
NORTHWEST ARKANSAS

CITY           SKY/WX    TMP DP  RH WIND       PRES   REMARKS
FAYETTEVILLE   MOSUNNY   86  72  62 E6        30.18F HX  92
6HR MIN TEMP:  73; 6HR MAX TEMP:  87;

FORT SMITH     SUNNY     91  74  57 NE12      30.11F HX 100
6HR MIN TEMP:  79; 6HR MAX TEMP:  91;

HARRISON       MOSUNNY   83  62  49 E8        30.22F
6HR MIN TEMP:  72; 6HR MAX TEMP:  83;

BENTONVILLE    SUNNY     84  64  51 E8        30.21S HX  86
6HR MIN TEMP:  75; 6HR MAX TEMP:  84;

ROGERS         MOSUNNY   85  67  54 E9        30.21S HX  87
6HR MIN TEMP:  75; 6HR MAX TEMP:  85;

SILOAM SPGS    PTSUNNY   86  68  54 E5        30.17F HX  89
6HR MIN TEMP:  73; 6HR MAX TEMP:  86;

HIGHFILL       MOSUNNY   87  70  56 E7        30.19F HX  92
6HR MIN TEMP:  74; 6HR MAX TEMP:  88;

SPRINGDALE     MOSUNNY   84  68  58 NE12      30.21F HX  87
$$

ARZ004-005-016-301900-
NORTH CENTRAL ARKANSAS

CITY           SKY/WX    TMP DP  RH WIND       PRES   REMARKS
BATESVILLE     SUNNY     88  61  40 E12       30.16F HX  88
6HR MIN TEMP:  75; 6HR MAX TEMP:  88;

FLIPPIN        SUNNY     84  61  45 SE7       30.18S
6HR MIN TEMP:  73; 6HR MAX TEMP:  84;

MTN HOME       SUNNY     84  59  42 E8        30.20S
6HR MIN TEMP:  71; 6HR MAX TEMP:  85;

$$

ARZ040-041-301900-
WEST CENTRAL ARKANSAS

CITY           SKY/WX    TMP DP  RH WIND       PRES   REMARKS
MENA           MOSUNNY   97  73  46 E8        30.13F THUNDER HX 107
MOUNT IDA      SUNNY     93  74  53 VRB5      30.11F HX 103
6HR MIN TEMP:  75; 6HR MAX TEMP:  94;

$$

ARZ009-017-025-026-028-301900-
NORTHEAST ARKANSAS

CITY           SKY/WX    TMP DP  RH WIND       PRES   REMARKS
JONESBORO      SUNNY     84  66  54 NE9       30.15F HX  86
6HR MIN TEMP:  75; 6HR MAX TEMP:  84;

NEWPORT        SUNNY     85  66  52 NE12      30.16F HX  87
6HR MIN TEMP:  75; 6HR MAX TEMP:  85;

WALNUT RIDGE   SUNNY     86  63  45 N13       30.16F HX  87
6HR MIN TEMP:  73; 6HR MAX TEMP:  86;

BLYTHEVILLE    SUNNY     86  66  51 NE13      30.14F HX  88
6HR MIN TEMP:  73; 6HR MAX TEMP:  86;

$$

ARZ022-023-033-042-044-301900-
CENTRAL ARKANSAS

CITY           SKY/WX    TMP DP  RH WIND       PRES   REMARKS
LITTLE ROCK    MOSUNNY   90  68  48 E10       30.13F HX  94
6HR MIN TEMP:  81; 6HR MAX TEMP:  91;

N LITTLE ROCK  MOSUNNY   92  70  48 NE10G18   30.13F HX  97
6HR MIN TEMP:  78; 6HR MAX TEMP:  94;

JACKSONVILLE   SUNNY     90  66  45 E9G18     30.13F HX  92
6HR MIN TEMP:  79; 6HR MAX TEMP:  90;

SEARCY         SUNNY     88  67  49 E10       30.16F HX  91
6HR MIN TEMP:  78; 6HR MAX TEMP:  88;

HOT SPRINGS    MOSUNNY   94  72  48 E9        30.12F HX 102
6HR MIN TEMP:  81; 6HR MAX TEMP:  94;

RUSSELLVILLE   SUNNY     90  68  48 E9        30.13F HX  94
6HR MIN TEMP:  77; 6HR MAX TEMP:  90;

CLINTON        LGT RAIN  86  64  48 NE5       30.17F HX  87
$$

ARZ036-301900-
EAST ARKANSAS

CITY           SKY/WX    TMP DP  RH WIND       PRES   REMARKS
WEST MEMPHIS   SUNNY     88  64  44 NE10      30.11F HX  89
6HR MIN TEMP:  77; 6HR MAX TEMP:  88; 6HR PCP: TRACE;

$$

ARZ050-053-066-070-073-301900-
SOUTHWEST ARKANSAS

CITY           SKY/WX    TMP DP  RH WIND       PRES   REMARKS
ARKADELPHIA    FAIR      95  77  55 VRB7      30.10F HX 109
6HR MIN TEMP:  81; 6HR MAX TEMP:  95;

CAMDEN         MOSUNNY   95  75  52 NE8       30.08F HX 107
TEXARKANA      SUNNY     98  72  42 NE7       30.08F HX 107
6HR MIN TEMP:  77; 6HR MAX TEMP:  99;

EL DORADO      SUNNY     97  75  49 N10       30.08F HX 109
6HR MIN TEMP:  78; 6HR MAX TEMP:  97;

DE QUEEN       SUNNY     96  74  48 E3        30.06F HX 107
6HR MIN TEMP:  75; 6HR MAX TEMP:  97;

$$

ARZ056-057-069-301900-
SOUTHEAST ARKANSAS

CITY           SKY/WX    TMP DP  RH WIND       PRES   REMARKS
PINE BLUFF     MOSUNNY   91  74  57 NE10      30.11F HX 100
6HR MIN TEMP:  80; 6HR MAX TEMP:  91; 6HR PCP: TRACE;

STUTTGART      SUNNY     88  68  51 N14       30.12F HX  91
6HR MIN TEMP:  79; 6HR MAX TEMP:  88;

MONTICELLO     MOSUNNY   93  78  61 NE12G20   30.09S HX 108
6HR MIN TEMP:  81; 6HR MAX TEMP:  94;


$$




USA.gov is the U.S. government's official web portal to all federal, state and local government web resources and services.